DW4915 Mazarete ES current weather conditions

sailwx.info

Wind from 334 at 13 knots gusting 24

Air temperature 0.6° C
Dewpoint -0.7° C

Last reported at 2015-Jan-31 09:51 UTC.
Time now 2015-Jan-31 10:08 UTC

Location: N 40°58' W 002°11'.
View on Google Maps.

See reports from other nearby stations

  
Tides and Currents Weather Stations Pressure Air Temp Water Temp Dewpoint Dewpoint Depression Visibility Wind Speed Wind Dir Waves Ship Positions
date/time (UTC)wind fromknots sea level pressurealtimeterstation pressurevisibilityair tempwater tempwave heightnotes
2015-Jan-31 09:51 334 13 gusting 24 0.6
2015-Jan-31 09:46 325 15 gusting 22 0.6
2015-Jan-31 09:36 348 11 gusting 24 1.1
2015-Jan-31 09:31 354 15 gusting 26 1.7
2015-Jan-31 09:26 321 18 gusting 26 1.7
2015-Jan-31 09:16 329 17 gusting 26 1.7
2015-Jan-31 09:11 311 15 gusting 28 1.7
2015-Jan-31 09:06 333 19 gusting 28 1.7
2015-Jan-31 08:56 312 12 gusting 22 1.7
2015-Jan-31 08:51 332 14 gusting 22 1.7
2015-Jan-31 08:46 331 14 gusting 21 1.7
2015-Jan-31 08:41 313 13 gusting 21 1.7
2015-Jan-31 08:36 314 15 gusting 21 1.7
2015-Jan-31 08:31 325 14 gusting 24 1.7
2015-Jan-31 08:26 324 13 gusting 23 1.7
2015-Jan-31 08:16 303 14 gusting 27 1.7
2015-Jan-31 08:11 316 15 gusting 27 1.7
2015-Jan-31 08:06 311 14 gusting 25 1.7
2015-Jan-31 07:56 329 13 gusting 22 1.7
2015-Jan-31 07:51 334 11 gusting 22 1.7
2015-Jan-31 07:46 309 14 gusting 21 1.7
2015-Jan-31 07:41 322 14 gusting 20 1.7
2015-Jan-31 07:31 323 7 gusting 13 1.7
2015-Jan-31 07:26 300 6 gusting 16 1.1
2015-Jan-31 07:16 292 7 gusting 20 1.7
2015-Jan-31 07:11 330 13 gusting 20 1.7
2015-Jan-31 07:06 310 8 gusting 20 1.7
2015-Jan-31 06:56 315 14 gusting 22 1.7
2015-Jan-31 06:51 326 16 gusting 23 1.7
2015-Jan-31 06:46 295 18 gusting 23 1.7
2015-Jan-31 06:36 296 13 gusting 24 2.2
2015-Jan-31 06:31 315 17 gusting 24 2.2
2015-Jan-31 06:26 314 12 gusting 26 2.2
2015-Jan-31 06:16 323 15 gusting 31 2.2
2015-Jan-31 06:11 321 14 gusting 26 2.2
2015-Jan-31 06:01 304 15 gusting 27 2.8
2015-Jan-31 05:56 313 16 gusting 27 2.8
2015-Jan-31 05:51 299 15 gusting 30 2.8
2015-Jan-31 05:46 304 19 gusting 29 2.8
2015-Jan-31 05:36 291 10 gusting 19 2.8
2015-Jan-31 05:31 317 13 gusting 22 2.8
2015-Jan-31 05:21 297 7 gusting 18 2.8
2015-Jan-31 05:16 316 8 gusting 15 2.8
2015-Jan-31 05:11 289 6 gusting 15 2.8
2015-Jan-31 05:01 292 6 gusting 14 2.8
2015-Jan-31 04:56 298 5 gusting 13 2.8
2015-Jan-31 04:51 285 6 gusting 14 2.8
2015-Jan-31 04:41 297 10 gusting 16 2.8
2015-Jan-31 04:36 308 6 gusting 12 2.8
2015-Jan-31 04:31 287 6 gusting 16 2.8
2015-Jan-31 04:21 315 7 gusting 16 2.2
2015-Jan-31 04:16 286 7 gusting 20 2.2
2015-Jan-31 04:11 304 7 gusting 25 2.2
2015-Jan-31 04:01 302 9 gusting 13 3.3
2015-Jan-31 03:56 309 6 gusting 19 3.3
2015-Jan-31 03:51 308 10 gusting 19 3.3
2015-Jan-31 03:46 312 6 gusting 22 3.3
2015-Jan-31 03:36 306 7 gusting 19 3.3
2015-Jan-31 03:31 291 8 gusting 21 3.3
2015-Jan-31 03:26 313 6 gusting 21 3.3
2015-Jan-31 03:16 279 9 gusting 20 2.8
2015-Jan-31 03:11 282 10 gusting 21 2.8
2015-Jan-31 02:51 325 8 gusting 23 2.8
2015-Jan-31 02:16 299 10 gusting 19 3.9
2015-Jan-31 02:06 327 12 gusting 23 4.4
2015-Jan-31 01:36 296 13 gusting 22 5.6
2015-Jan-31 00:56 279 13 gusting 27 5.6
2015-Jan-31 00:46 294 9 gusting 19 5.6
2015-Jan-31 00:41 299 10 gusting 19 5.6
2015-Jan-31 00:36 300 11 gusting 19 5.6
2015-Jan-31 00:26 321 8 gusting 20 5.0
2015-Jan-31 00:21 318 10 gusting 23 5.0
2015-Jan-31 00:06 294 13 gusting 24 5.6
2015-Jan-30 23:46 325 13 gusting 23 5.6
2015-Jan-30 23:36 287 9 gusting 16 5.6
2015-Jan-30 23:31 292 5 gusting 19 5.6
2015-Jan-30 23:26 273 8 gusting 20 5.6
2015-Jan-30 23:16 298 5 gusting 12 5.6
2015-Jan-30 23:11 293 6 gusting 12 5.6
2015-Jan-30 23:06 308 6 gusting 11 5.6
2015-Jan-30 22:56 304 6 gusting 8 5.6
2015-Jan-30 22:51 304 5 gusting 8 5.6
2015-Jan-30 22:46 297 1 gusting 13 5.6
2015-Jan-30 22:36 290 5 gusting 13 5.6
2015-Jan-30 22:31 300 8 gusting 13 5.6
2015-Jan-30 22:26 315 7 gusting 16 5.6
2015-Jan-30 22:16 319 11 gusting 22 5.6
2015-Jan-30 22:11 324 13 gusting 21 6.1
2015-Jan-30 22:06 310 11 gusting 19 6.1
2015-Jan-30 21:56 296 10 gusting 22 6.1
2015-Jan-30 21:51 320 8 gusting 22 6.1
2015-Jan-30 21:46 306 6 gusting 13 6.7
2015-Jan-30 21:36 295 7 gusting 19 6.7
2015-Jan-30 21:31 299 9 gusting 16 6.7
2015-Jan-30 21:26 265 7 gusting 13 6.7
2015-Jan-30 21:21 280 5 gusting 13 6.7
2015-Jan-30 21:11 298 4 gusting 11 6.7
2015-Jan-30 20:56 285 5 gusting 9 6.1
2015-Jan-30 20:51 294 2 gusting 8 6.1
2015-Jan-30 20:46 296 4 gusting 8 6.1
2015-Jan-30 20:41 304 3 gusting 11 6.1
2015-Jan-30 20:26 314 9 gusting 13 5.6
2015-Jan-30 20:21 337 11 gusting 15 5.6
2015-Jan-30 19:51 328 12 gusting 19 6.7
2015-Jan-30 19:41 307 10 gusting 19 7.2
2015-Jan-30 19:36 304 10 gusting 22 7.2
2015-Jan-30 19:31 295 11 gusting 26 7.2
2015-Jan-30 19:26 281 8 gusting 26 7.2
2015-Jan-30 19:16 308 10 gusting 17 7.2
2015-Jan-30 19:11 287 12 gusting 17 7.2
2015-Jan-30 19:06 269 10 gusting 18 7.2
2015-Jan-30 19:01 283 7 gusting 18 7.2
2015-Jan-30 18:51 302 10 gusting 16 7.2
2015-Jan-30 18:46 317 6 gusting 15 7.2
2015-Jan-30 18:41 275 9 gusting 14 7.2
2015-Jan-30 18:31 216 13 gusting 20 7.2
2015-Jan-30 18:26 269 13 gusting 20 7.2
2015-Jan-30 18:21 269 11 gusting 17 7.2
2015-Jan-30 18:11 283 6 gusting 16 7.2
2015-Jan-30 18:06 267 10 gusting 16 7.2
2015-Jan-30 18:01 268 7 gusting 16 7.2
2015-Jan-30 17:51 262 7 gusting 13 7.2
2015-Jan-30 17:46 277 9 gusting 21 7.2
2015-Jan-30 17:41 280 12 gusting 21 7.2
2015-Jan-30 17:31 283 11 gusting 23 7.2
2015-Jan-30 17:26 256 14 gusting 23 7.2
2015-Jan-30 17:16 262 10 gusting 20 7.2
2015-Jan-30 17:11 237 13 gusting 20 7.2
2015-Jan-30 17:06 256 13 gusting 19 7.2
2015-Jan-30 16:56 285 12 gusting 19 7.2
2015-Jan-30 16:51 277 9 gusting 18 7.2
2015-Jan-30 16:46 261 10 gusting 20 7.2
2015-Jan-30 16:36 252 7 gusting 16 7.2
2015-Jan-30 16:16 255 10 gusting 20 7.2
2015-Jan-30 16:06 293 12 gusting 22 7.2
2015-Jan-30 16:01 279 9 gusting 19 7.8
2015-Jan-30 15:56 271 10 gusting 19 7.8
2015-Jan-30 15:46 289 13 gusting 21 7.8
2015-Jan-30 15:41 294 12 gusting 21 7.8
2015-Jan-30 15:36 259 11 gusting 21 7.8
2015-Jan-30 15:21 271 12 gusting 18 7.8
2015-Jan-30 15:16 273 12 gusting 17 7.8
2015-Jan-30 15:11 279 9 gusting 22 7.8
2015-Jan-30 15:06 303 10 gusting 22 7.8
2015-Jan-30 15:01 281 13 gusting 21 7.8
2015-Jan-30 14:51 269 10 gusting 19 7.8
2015-Jan-30 14:46 256 12 gusting 21 7.8
2015-Jan-30 14:36 256 15 gusting 20 7.8
2015-Jan-30 14:31 276 12 gusting 18 7.8
2015-Jan-30 14:26 271 11 gusting 17 7.8
2015-Jan-30 14:16 277 9 gusting 19 7.8
2015-Jan-30 14:11 283 6 gusting 15 7.8
2015-Jan-30 14:06 268 7 gusting 18 7.8
2015-Jan-30 13:56 273 6 gusting 13 7.8
2015-Jan-30 13:51 287 5 gusting 15 8.3
2015-Jan-30 13:46 325 7 gusting 19 8.3
2015-Jan-30 13:41 290 8 gusting 20 8.3
2015-Jan-30 13:31 297 6 gusting 18 8.9
2015-Jan-30 13:26 280 8 gusting 18 8.9
2015-Jan-30 13:16 291 12 gusting 19 9.4
2015-Jan-30 13:11 285 10 gusting 22 9.4
2015-Jan-30 13:06 277 8 gusting 26 9.4
2015-Jan-30 12:56 318 8 gusting 22 9.4
2015-Jan-30 12:51 282 11 gusting 24 9.4
2015-Jan-30 12:46 278 15 gusting 27 9.4
2015-Jan-30 12:41 268 12 gusting 27 9.4
2015-Jan-30 12:31 274 18 gusting 24 9.4
2015-Jan-30 12:26 256 15 gusting 25 9.4
2015-Jan-30 12:16 297 10 gusting 24 9.4
2015-Jan-30 12:11 275 13 gusting 22 9.4
2015-Jan-30 12:06 294 14 gusting 21 9.4
2015-Jan-30 11:56 287 8 gusting 18 8.9
2015-Jan-30 11:51 281 9 gusting 25 9.4
2015-Jan-30 11:46 281 13 gusting 26 9.4
2015-Jan-30 11:36 277 9 gusting 20 9.4
2015-Jan-30 11:31 304 10 gusting 20 9.4
2015-Jan-30 11:26 285 7 gusting 28 10.0
2015-Jan-30 11:16 284 11 gusting 28 9.4
2015-Jan-30 11:11 323 13 gusting 28 9.4
2015-Jan-30 11:06 280 13 gusting 25 9.4
2015-Jan-30 10:56 297 15 gusting 26 8.9
2015-Jan-30 10:51 258 7 gusting 15 8.3
2015-Jan-30 10:46 256 9 gusting 15 7.8
2015-Jan-30 10:36 291 7 gusting 17 7.8
2015-Jan-30 10:31 267 13 gusting 19 7.8
2015-Jan-30 10:26 228 12 gusting 19 7.8
2015-Jan-30 10:21 271 12 gusting 18 7.8
2015-Jan-30 10:11 247 15 gusting 20 7.2
2015-Jan-30 10:06 238 13 gusting 20 7.2
2015-Jan-30 09:56 256 13 gusting 20 7.2
2015-Jan-30 09:51 239 13 gusting 18 7.2
2015-Jan-30 09:46 253 13 gusting 18 7.2
2015-Jan-30 09:36 254 8 gusting 19 7.2
2015-Jan-30 09:31 230 13 gusting 19 7.2
2015-Jan-30 09:26 256 12 gusting 18 7.2
2015-Jan-30 09:16 233 13 gusting 22 7.2
2015-Jan-30 09:11 275 10 gusting 18 7.2
2015-Jan-30 09:06 267 8 gusting 18 7.2
2015-Jan-30 08:56 235 6 gusting 17 6.7
2015-Jan-30 08:51 282 8 gusting 16 6.7
2015-Jan-30 08:46 254 9 gusting 16 6.7
2015-Jan-30 08:36 274 10 gusting 18 6.7
2015-Jan-30 08:31 271 8 gusting 16 6.7
2015-Jan-30 08:26 272 9 gusting 19 6.7
2015-Jan-30 08:16 279 13 gusting 18 6.7
2015-Jan-30 08:11 267 10 gusting 19 6.7
2015-Jan-30 08:06 255 9 gusting 19 6.7
2015-Jan-30 07:56 273 10 gusting 19 6.7
2015-Jan-30 07:51 268 13 gusting 19 6.7
2015-Jan-30 07:46 261 11 gusting 17 6.7
2015-Jan-30 07:36 251 11 gusting 17 6.7
2015-Jan-30 07:31 265 11 gusting 20 6.7
2015-Jan-30 07:26 275 12 gusting 20 6.7
2015-Jan-30 07:16 248 10 gusting 19 6.7
2015-Jan-30 07:11 261 8 gusting 21 6.7
2015-Jan-30 07:01 263 8 gusting 15 6.7
2015-Jan-30 06:56 279 10 gusting 21 6.7
2015-Jan-30 06:51 302 14 gusting 18 6.7
2015-Jan-30 06:46 280 12 gusting 20 6.7
2015-Jan-30 06:36 277 13 gusting 21 6.7
2015-Jan-30 06:31 252 12 gusting 19 7.2
2015-Jan-30 06:21 273 11 gusting 15 7.2
2015-Jan-30 06:16 267 9 gusting 17 7.2
2015-Jan-30 06:11 276 10 gusting 17 7.2
2015-Jan-30 06:01 277 13 gusting 20 7.2
2015-Jan-30 05:56 292 11 gusting 20 7.2
2015-Jan-30 05:51 250 11 gusting 19 7.2
2015-Jan-30 05:46 274 11 gusting 19 7.2
2015-Jan-30 05:36 265 10 gusting 22 7.2
2015-Jan-30 05:31 266 13 gusting 22 7.2
2015-Jan-30 05:21 275 12 gusting 23 7.2
2015-Jan-30 05:16 278 9 gusting 19 7.2
2015-Jan-30 05:06 255 10 gusting 20 7.2
2015-Jan-30 05:01 268 11 gusting 20 7.2
2015-Jan-30 04:56 273 9 gusting 20 7.2
2015-Jan-30 04:51 271 8 gusting 19 7.2
2015-Jan-30 04:41 271 10 gusting 17 7.2
2015-Jan-30 04:36 285 12 gusting 17 7.2
2015-Jan-30 04:26 269 12 gusting 18 7.2
2015-Jan-30 04:21 267 12 gusting 17 7.2
2015-Jan-30 04:16 326 11 gusting 18 7.2
2015-Jan-30 04:06 265 11 gusting 22 7.2
2015-Jan-30 04:01 283 11 gusting 24 7.2
2015-Jan-30 03:56 296 13 gusting 24 7.2
2015-Jan-30 03:51 270 12 gusting 19 7.2
2015-Jan-30 03:41 268 13 gusting 19 7.2
2015-Jan-30 03:36 275 13 gusting 21 7.8
2015-Jan-30 03:31 260 14 gusting 21 7.8
2015-Jan-30 03:21 291 9 gusting 19 7.2
2015-Jan-30 03:11 271 13 gusting 23 7.8
2015-Jan-30 03:06 282 13 gusting 22 7.8
2015-Jan-30 03:01 282 13 gusting 21 7.8
2015-Jan-30 02:56 293 10 gusting 19 7.8
2015-Jan-30 02:46 273 11 gusting 20 7.8
2015-Jan-30 02:41 269 13 gusting 19 7.2
2015-Jan-30 02:36 277 9 gusting 17 7.2
2015-Jan-30 02:26 279 11 gusting 21 7.8
2015-Jan-30 02:21 267 10 gusting 20 7.8
2015-Jan-30 02:11 267 6 gusting 19 7.2
2015-Jan-30 02:06 273 11 gusting 19 7.2
2015-Jan-30 02:01 258 11 gusting 16 7.2
2015-Jan-30 01:56 275 10 gusting 15 7.2
2015-Jan-30 01:46 252 10 gusting 18 6.7
2015-Jan-30 01:41 253 8 gusting 17 6.7
2015-Jan-30 01:36 258 11 gusting 22 6.7
2015-Jan-30 01:26 221 9 gusting 16 6.7
2015-Jan-30 01:21 248 9 gusting 16 6.7
2015-Jan-30 01:11 267 11 gusting 21 6.7
2015-Jan-30 01:06 261 13 gusting 21 6.7
2015-Jan-30 01:01 271 11 gusting 17 6.7
2015-Jan-30 00:56 269 9 gusting 18 6.7
2015-Jan-30 00:46 247 10 gusting 18 6.7
2015-Jan-30 00:41 272 10 gusting 18 6.7
2015-Jan-30 00:36 271 13 gusting 20 6.7
2015-Jan-30 00:26 243 11 gusting 19 6.7
2015-Jan-30 00:21 231 12 gusting 17 6.7
2015-Jan-30 00:11 266 9 gusting 19 6.7
2015-Jan-30 00:06 238 11 gusting 21 6.7
2015-Jan-30 00:01 230 12 gusting 21 6.7
2015-Jan-29 23:51 177 10 gusting 19 6.7
2015-Jan-29 23:46 260 10 gusting 22 6.7
2015-Jan-29 23:36 242 13 gusting 19 6.7
2015-Jan-29 23:31 256 13 gusting 20 6.7
2015-Jan-29 23:26 256 12 gusting 20 6.7
2015-Jan-29 23:16 257 12 gusting 20 6.7
2015-Jan-29 23:11 234 10 gusting 19 6.7
2015-Jan-29 23:06 271 12 gusting 22 6.7
2015-Jan-29 22:56 242 13 gusting 25 6.7
2015-Jan-29 22:51 265 11 gusting 21 6.7
2015-Jan-29 22:46 227 13 gusting 21 6.7
2015-Jan-29 22:41 248 12 gusting 20 6.7
2015-Jan-29 22:31 246 11 gusting 23 6.7
2015-Jan-29 22:26 242 12 gusting 23 6.7
2015-Jan-29 22:21 268 13 gusting 20 6.7
2015-Jan-29 22:11 254 13 gusting 23 6.7
2015-Jan-29 22:06 269 13 gusting 23 6.7
2015-Jan-29 22:01 262 10 gusting 22 6.7
2015-Jan-29 21:56 254 12 gusting 21 6.1
2015-Jan-29 21:46 226 8 gusting 14 6.1
2015-Jan-29 21:41 262 10 gusting 16 6.1
2015-Jan-29 21:31 237 13 gusting 20 6.1
2015-Jan-29 21:26 245 10 gusting 17 6.1
2015-Jan-29 21:21 243 12 gusting 17 6.1
2015-Jan-29 21:11 227 13 gusting 19 6.1
2015-Jan-29 21:06 246 13 gusting 19 6.1
2015-Jan-29 21:01 221 11 gusting 21 6.1
2015-Jan-29 20:56 225 12 gusting 21 6.1
2015-Jan-29 20:46 225 13 gusting 20 6.1
2015-Jan-29 20:41 256 10 gusting 20 6.1
2015-Jan-29 20:31 237 12 gusting 19 6.1
2015-Jan-29 20:26 254 9 gusting 19 6.1
2015-Jan-29 20:21 246 8 gusting 20 5.6
2015-Jan-29 20:11 248 8 gusting 17 5.6
2015-Jan-29 20:06 243 12 gusting 17 5.6
2015-Jan-29 20:01 221 11 gusting 15 5.6
2015-Jan-29 19:56 226 10 gusting 16 5.6
2015-Jan-29 19:51 246 11 gusting 16 5.6
2015-Jan-29 19:46 246 8 gusting 16 6.1
2015-Jan-29 19:41 242 11 gusting 16 6.1
2015-Jan-29 19:31 248 10 gusting 17 6.1
2015-Jan-29 19:26 239 9 gusting 19 6.1
2015-Jan-29 19:16 246 7 gusting 20 6.7
2015-Jan-29 19:11 258 11 gusting 16 6.7
2015-Jan-29 19:06 226 8 gusting 18 6.7
2015-Jan-29 18:56 199 10 gusting 18 6.7
2015-Jan-29 18:51 244 12 gusting 18 6.7
2015-Jan-29 18:46 231 9 gusting 15 6.7
2015-Jan-29 18:36 235 10 gusting 15 6.7
2015-Jan-29 18:31 225 8 gusting 15 6.7
2015-Jan-29 18:26 242 8 gusting 16 6.7
2015-Jan-29 18:16 247 13 gusting 18 6.7
2015-Jan-29 18:11 228 13 gusting 20 6.7
2015-Jan-29 18:06 250 12 gusting 20 6.7
2015-Jan-29 18:01 229 9 gusting 18 6.7
2015-Jan-29 17:51 231 9 gusting 17 6.7
2015-Jan-29 17:46 221 8 gusting 19 6.7
2015-Jan-29 17:41 237 9 gusting 19 6.7
2015-Jan-29 17:36 235 11 gusting 16 6.7
2015-Jan-29 17:26 235 8 gusting 17 6.7
2015-Jan-29 17:21 231 9 gusting 17 6.7
2015-Jan-29 17:11 244 10 gusting 19 6.7
2015-Jan-29 17:06 250 13 gusting 21 6.7
2015-Jan-29 17:01 235 12 gusting 21 6.7
2015-Jan-29 16:51 221 11 gusting 19 7.2
2015-Jan-29 16:46 238 8 gusting 17 7.2
2015-Jan-29 16:41 256 10 gusting 19 7.2
2015-Jan-29 16:36 252 12 gusting 19 7.2
2015-Jan-29 16:26 252 12 gusting 20 7.2
2015-Jan-29 16:21 235 12 gusting 20 7.2
2015-Jan-29 16:16 246 12 gusting 20 7.2
2015-Jan-29 16:06 256 12 gusting 21 7.2
2015-Jan-29 15:56 237 13 gusting 23 7.2
2015-Jan-29 15:51 258 13 gusting 23 7.2
2015-Jan-29 15:46 266 11 gusting 21 7.2
2015-Jan-29 15:36 237 11 gusting 18 7.2
2015-Jan-29 15:31 242 8 gusting 17 6.7
2015-Jan-29 15:26 253 10 gusting 17 6.7
2015-Jan-29 15:16 261 13 gusting 19 6.7
2015-Jan-29 15:11 216 10 gusting 19 6.7
2015-Jan-29 15:06 256 12 gusting 19 6.7
2015-Jan-29 14:56 256 7 gusting 19 6.7
2015-Jan-29 14:51 280 9 gusting 18 6.7
2015-Jan-29 14:46 247 10 gusting 16 6.7
2015-Jan-29 14:41 238 11 gusting 16 6.7
2015-Jan-29 14:31 240 8 gusting 16 6.7
2015-Jan-29 14:26 236 9 gusting 16 6.7
2015-Jan-29 14:21 244 6 gusting 17 6.7
2015-Jan-29 14:11 240 8 gusting 16 6.7
2015-Jan-29 14:06 265 10 gusting 14 6.7
2015-Jan-29 14:01 250 8 gusting 18 6.7
2015-Jan-29 13:56 272 11 gusting 18 6.7
2015-Jan-29 13:51 248 11 gusting 21 6.7
2015-Jan-29 13:41 247 8 gusting 15 6.7
2015-Jan-29 13:36 275 10 gusting 15 6.7
2015-Jan-29 13:26 242 11 gusting 16 6.1
2015-Jan-29 13:16 227 12 gusting 19 6.1
2015-Jan-29 13:06 266 15 gusting 22 6.1
2015-Jan-29 13:01 226 13 gusting 19 6.7
2015-Jan-29 12:56 254 13 gusting 21 6.7
2015-Jan-29 12:46 252 14 gusting 21 6.7
2015-Jan-29 12:41 248 11 gusting 19 6.7
2015-Jan-29 12:36 248 13 gusting 19 6.1
2015-Jan-29 12:26 241 9 gusting 17 6.1
2015-Jan-29 12:21 244 11 gusting 17 6.1
2015-Jan-29 12:11 244 11 gusting 15 5.6
2015-Jan-29 12:06 233 7 gusting 14 5.6
2015-Jan-29 12:01 245 7 gusting 13 5.6
2015-Jan-29 11:56 238 7 gusting 14 6.1
2015-Jan-29 11:46 227 8 gusting 15 6.1
2015-Jan-29 11:41 271 11 gusting 16 6.1
2015-Jan-29 11:31 240 7 gusting 16 5.6
2015-Jan-29 11:26 252 7 gusting 17 5.6
2015-Jan-29 11:21 275 6 gusting 14 5.6
2015-Jan-29 11:11 263 9 gusting 15 5.6
2015-Jan-29 11:06 254 11 gusting 14 5.6
2015-Jan-29 11:01 240 6 gusting 11 5.0
2015-Jan-29 10:56 233 8 gusting 11 4.4
2015-Jan-29 10:46 227 6 gusting 9 3.3
2015-Jan-29 10:41 228 6 gusting 9 3.3
2015-Jan-29 10:31 237 7 gusting 11 2.8
2015-Jan-29 10:26 236 6 gusting 11 2.8
2015-Jan-29 10:21 242 6 gusting 11 2.8
2015-Jan-29 10:11 231 8 gusting 11 2.8
2015-Jan-29 10:06 239 6 gusting 10 2.8
2015-Jan-29 10:01 237 6 gusting 11 2.8